Weather History for KCVX - October, 2014

Change the Weather History Date:

Tuesday, October 14, 2014

  Actual Average Record
Temperature  
Mean Temperature 60 °F -  
Max Temperature 65 °F 66 °F 71 °F (2008)
Min Temperature 54 °F 48 °F 28 °F (2002)
Degree Days  
Heating Degree Days 6    
Growing Degree Days 10 (Base 50)    
Moisture  
Dew Point 59 °F    
Average Humidity 99    
Maximum Humidity 100    
Minimum Humidity 94    
Precipitation  
Precipitation 0.00 in - - ()
Sea Level Pressure  
Sea Level Pressure 29.64 in    
Wind  
Wind Speed 8 mph (ENE)    
Max Wind Speed 21 mph    
Max Gust Speed 26 mph    
Visibility 7 miles    
Events Rain    
Averages and records for this station are not official NWS values.
T = Trace of Precipitation, MM = Missing Value Source: NWS Daily Summary

Daily Weather History Graph

Daily Weather History Graph

Search for Another Location

Airport or City:

Trip Planner

Search our weather history database for the weather conditions in past years. The results will help you decide how hot, cold, wet, or windy it might be!

Date:

Astronomy

Oct. 14, 2014 Rise Set
Actual Time 7:55 AM EDT 6:57 PM EDT
Civil Twilight 7:26 AM EDT 7:27 PM EDT
Nautical Twilight 6:51 AM EDT 8:01 PM EDT
Astronomical Twilight 6:17 AM EDT 8:35 PM EDT
Moon 11:54 PM EDT (10/14) 2:04 PM EDT (10/14)
Length of Visible Light 12h 01m
Length of Day
11h 01m
Waning Gibbous, 61% of the Moon is Illuminated
Oct 14
Waning Gibbous
Oct 15
Last Quarter
Oct 23
New
Oct 30
First Quarter
Nov 6
Full

Hourly Weather History & Observations

Time (EDT) Temp. Dew Point Humidity Pressure Visibility Wind Dir Wind Speed Gust Speed Precip Events Conditions
12:01 AM 57.6 °F 57.6 °F 100% 29.70 in 7.0 mi East 6.9 mph - N/A Rain Rain
2:01 AM 61.7 °F 61.7 °F 100% 29.63 in 7.0 mi ESE 6.9 mph - N/A   Overcast
2:15 AM 62.6 °F 62.6 °F 100% 29.62 in 7.0 mi SE 5.8 mph - N/A   Overcast
2:34 AM 63.9 °F 63.9 °F 100% 29.62 in 10.0 mi SSE 4.6 mph - N/A Rain Light Rain
2:54 AM 64.4 °F 64.4 °F 100% 29.62 in 10.0 mi SSE 6.9 mph - N/A Rain Light Rain
3:15 AM 65.1 °F 64.9 °F 99% 29.61 in 10.0 mi SSE 8.1 mph - N/A   Light Drizzle
3:35 AM 65.3 °F 64.9 °F 99% 29.60 in 10.0 mi SSE 8.1 mph 16.1 mph N/A Rain Light Rain
3:54 AM 65.3 °F 64.8 °F 98% 29.59 in 10.0 mi SSE 8.1 mph - N/A   Overcast
4:15 AM 65.3 °F 64.6 °F 98% 29.59 in 10.0 mi SSE 8.1 mph - N/A   Overcast
4:34 AM 65.3 °F 64.6 °F 98% 29.58 in 10.0 mi SSE 8.1 mph - N/A   Mostly Cloudy
4:54 AM 65.5 °F 64.6 °F 97% 29.58 in 10.0 mi SSE 10.4 mph - N/A Rain Light Rain
5:15 AM 65.7 °F 64.4 °F 96% 29.58 in 10.0 mi South 12.7 mph 19.6 mph N/A   Overcast
5:34 AM 65.8 °F 64.4 °F 95% 29.59 in 10.0 mi South 10.4 mph 17.3 mph N/A   Mostly Cloudy
5:54 AM 65.8 °F 64.2 °F 94% 29.60 in 10.0 mi South 8.1 mph 17.3 mph N/A Rain Light Rain
6:15 AM 65.8 °F 64.0 °F 94% 29.60 in 10.0 mi South 10.4 mph - N/A Rain Light Rain
6:34 AM 65.7 °F 64.0 °F 94% 29.61 in 10.0 mi South 8.1 mph - N/A Rain Light Rain
6:55 AM 65.3 °F 64.0 °F 96% 29.62 in 10.0 mi South 9.2 mph - N/A   Overcast
7:15 AM 65.3 °F 64.4 °F 97% 29.62 in 7.0 mi South 6.9 mph - N/A   Drizzle
7:34 AM 64.9 °F 64.4 °F 98% 29.62 in 10.0 mi South 6.9 mph - N/A   Overcast
7:55 AM 64.9 °F 64.0 °F 97% 29.62 in 10.0 mi SSE 4.6 mph - N/A   Overcast
8:15 AM 64.4 °F 63.9 °F 98% 29.62 in 10.0 mi Calm Calm - N/A   Overcast
8:34 AM 64.4 °F 63.9 °F 98% 29.62 in 10.0 mi Calm Calm - N/A   Overcast
8:55 AM 63.9 °F 63.7 °F 99% 29.63 in 5.0 mi Calm Calm - N/A   Light Drizzle
9:15 AM 62.6 °F 62.6 °F 100% 29.63 in 4.0 mi NW 5.8 mph - N/A   Overcast
9:34 AM 61.7 °F 61.7 °F 100% 29.63 in 2.5 mi NNW 5.8 mph - N/A   Overcast
9:55 AM 57.9 °F 57.7 °F 99% 29.65 in 2.5 mi WNW 11.5 mph 16.1 mph N/A Rain Light Rain
10:15 AM 55.9 °F 55.9 °F 100% 29.65 in 10.0 mi North 10.4 mph - N/A Rain Rain
10:34 AM 55.6 °F 55.6 °F 100% 29.65 in 3.0 mi North 10.4 mph - N/A Rain Heavy Rain
10:55 AM 55.4 °F 55.4 °F 100% 29.65 in 4.0 mi North 8.1 mph - N/A Rain Rain
11:15 AM 55.4 °F 55.4 °F 100% 29.64 in 5.0 mi North 11.5 mph 16.1 mph N/A Rain Rain
11:34 AM 55.4 °F 55.4 °F 100% 29.64 in 7.0 mi North 12.7 mph - N/A Rain Rain
11:55 AM 55.4 °F 55.4 °F 100% 29.64 in 5.0 mi NNE 10.4 mph 18.4 mph N/A Rain Rain
12:15 PM 55.4 °F 55.4 °F 100% 29.65 in 3.0 mi NNE 6.9 mph - N/A Rain Rain
12:34 PM 55.6 °F 55.6 °F 100% 29.64 in 4.0 mi North 8.1 mph - N/A Rain Light Rain
12:55 PM 55.4 °F 55.4 °F 100% 29.65 in 7.0 mi NNE 9.2 mph - N/A Rain Rain
1:14 PM 55.4 °F 55.4 °F 100% 29.65 in 4.0 mi NNE 9.2 mph - N/A Rain Rain
1:34 PM 55.4 °F 55.4 °F 100% 29.66 in 2.5 mi North 8.1 mph - N/A Rain Rain
1:55 PM 55.6 °F 55.6 °F 100% 29.65 in 4.0 mi North 5.8 mph - N/A Rain Heavy Rain
2:14 PM 55.6 °F 55.6 °F 100% 29.65 in 5.0 mi North 9.2 mph - N/A Rain Heavy Rain
2:34 PM 55.4 °F 55.4 °F 100% 29.64 in 7.0 mi North 12.7 mph - N/A Rain Rain
2:55 PM 54.9 °F 54.9 °F 100% 29.64 in 4.0 mi North 13.8 mph - N/A Rain Light Rain
3:14 PM 55.0 °F 55.0 °F 100% 29.64 in 10.0 mi NNE 8.1 mph - N/A Rain Rain
3:35 PM 55.6 °F 55.6 °F 100% 29.64 in 7.0 mi North 5.8 mph - N/A Rain Rain
3:55 PM 55.8 °F 55.8 °F 100% 29.64 in 7.0 mi NE 3.5 mph - N/A Rain Rain
4:14 PM 56.5 °F 56.5 °F 100% 29.63 in 10.0 mi NE 4.6 mph - N/A Rain Rain
4:35 PM 57.4 °F 57.4 °F 100% 29.64 in 7.0 mi ENE 3.5 mph - N/A Rain Light Rain
4:55 PM 58.1 °F 58.1 °F 100% 29.64 in 2.5 mi Calm Calm - N/A   Drizzle
5:14 PM 58.1 °F 58.1 °F 100% 29.64 in 2.5 mi North 3.5 mph - N/A Rain Rain
5:35 PM 58.6 °F 58.6 °F 100% 29.65 in 10.0 mi NNW 4.6 mph - N/A Rain Light Rain
5:55 PM 57.2 °F 57.2 °F 100% 29.62 in 7.0 mi North 13.8 mph 20.7 mph N/A Rain Light Rain
6:14 PM 57.4 °F 57.4 °F 100% 29.65 in 7.0 mi Calm Calm - N/A Rain Light Rain
6:35 PM 57.0 °F 57.0 °F 100% 29.65 in 10.0 mi NNE 12.7 mph 19.6 mph N/A   Overcast
6:55 PM 56.3 °F 56.3 °F 100% 29.66 in 10.0 mi NNE 11.5 mph 21.9 mph N/A   Overcast
7:14 PM 56.7 °F 56.7 °F 100% 29.65 in 10.0 mi NNE 20.7 mph 25.3 mph N/A   Overcast
7:35 PM 57.4 °F 57.4 °F 100% 29.57 in 10.0 mi NNE 18.4 mph 26.5 mph N/A   Overcast
7:55 PM 57.7 °F 57.7 °F 100% 29.60 in 10.0 mi East 11.5 mph - N/A   Overcast
8:14 PM 58.8 °F 58.8 °F 100% 29.61 in 10.0 mi East 10.4 mph 17.3 mph N/A   Overcast
8:35 PM 59.2 °F 59.2 °F 100% 29.63 in 10.0 mi ENE 11.5 mph 18.4 mph N/A   Overcast
8:55 PM 58.3 °F 58.3 °F 100% 29.64 in 10.0 mi ENE 5.8 mph - N/A   Overcast
9:14 PM 58.1 °F 58.1 °F 100% 29.68 in 10.0 mi East 9.2 mph - N/A   Overcast
9:35 PM 57.2 °F 57.2 °F 100% 29.67 in 10.0 mi NE 11.5 mph - N/A   Overcast
9:55 PM 56.5 °F 56.5 °F 100% 29.68 in 7.0 mi NE 9.2 mph - N/A   Overcast
10:14 PM 56.1 °F 56.1 °F 100% 29.67 in 5.0 mi NNE 13.8 mph - N/A   Overcast
10:35 PM 55.8 °F 55.8 °F 100% 29.68 in 3.0 mi NE 12.7 mph 20.7 mph N/A   Overcast
10:55 PM 55.8 °F 55.8 °F 100% 29.71 in 5.0 mi East 12.7 mph - N/A   Overcast
11:14 PM 55.4 °F 55.4 °F 100% 29.70 in 3.0 mi ENE 12.7 mph 19.6 mph N/A   Overcast
11:35 PM 54.9 °F 54.9 °F 100% 29.69 in 2.0 mi ENE 11.5 mph - N/A   Overcast
11:54 PM 54.7 °F 54.7 °F 100% 29.70 in 2.0 mi East 10.4 mph 17.3 mph N/A   Overcast